• Le Poker by Infinite Player


    En France !!!

    Viens jouer au poker dans ton spot

    favori : c'est en live, c'est 100% gratuit

    et c'est super convivial.

    Rejoins la famille Infinite Player ;)

  • Infinite Player

    Résultats

    Consultez vos

    classements

    et statistiques

  • Les soirées Poker Infinite Player

    Dans votre établissement ?

    Devenir

    établissement partenaire

    Que vous soyez un bowling, un bar, un restaurant,

    un escape-game, un hôtel, ou même une salle de billard

    vous pouvez très nettement augmenter votre clientèle de

    semaine en hébergeant facilement nos tournois, contactez-nous !

INFINITE PLAYER :

La seule Ligue 100% gratuite de poker en Suisse depuis 2015, et en France depuis 2020 !!!

Pour participer c’est très simple, connecte-toi à ton espace personnel, choisis le jour où tu veux jouer, inscris-toi, et c'est parti !

Selon ton classement et du nombre de joueurs, tu obtiens des points qui forment une moyenne et ainsi, à chaque fin de saison (4 mois), te donneront accès aux finales, toujours 100% gratuites, regroupant les meilleurs joueurs de la région et avec une superbe dotation !!

Auras-tu l’aplomb ? Seras-tu le prochain champion INFINITE PLAYER en remportant des tickets pour les plus grands tournois d’Europe ?

(Dont les fameux évènements de notre partenaire Winamax : le Winamax Poker Tour, le Winamax Poker Open et le Sismix)

SHUFFLE UP AND DEAL !!!

Dernières nouvelles

Le championnat Infinite Player du Q1 2022 se termine ce 30 avril 2022, plus qu'une semaine pour te qualifier !!

CLIQUE ICI POUR Y ACCEDER

Le classement Infinite Player du Q3 2021 dans la zone SUD est disponible.

CLIQUE ICI POUR Y ACCEDER

A jour au 30/12, prochaine mise à jour le 31/12.

Le classement Infinite Player du Q3 2021 en Rhône-Alpes est disponible.

CLIQUE ICI POUR Y ACCEDER

A jour au 30/12, prochaine mise à jour le 31/12.

Tu veux jouer avec nous Online et participer à nos divers championnats ? C'est par ici que ça se passe :

CLIQUE ICI POUR Y ACCEDER

LA SORTIE DU COVID APPROCHE !! On reprend enfin le Poker Live gratuit dans vos établissements favoris après cette longue période sans vous voir. En Juin c'est seulement les week-end (couvre-feu oblige) et dès Juillet retour à la normale. Par contre, le masque reste obligatoire et le 6-max imposé jusqu'à nouvel ordre.

DEPUIS 2015 EN SUISSE, NOUS VOICI ENFIN EN FRANCE !! Jouez au poker dans votre établissement favori : C'est en live, c'est 100% gratuit, et vous vous créez un cercle d'amis.

Nouveaux établissements

2183 chemin de la Grande Carraire, 83600 Fréjus,
PUGET (83600)

230 Rue du Marais Sandre,
SAINT-PIERRE-D'ALBIGNY (73250)

9 Boulevard du Fier,
ANNECY (74000)

Tournois à venir

Ville

Établissement

Jour

Date / Heure de RDV
(start 30' après)

Inscriptions

202207071800 ARLES (13200) My Beers (Arles) Jeudi 07 juillet 18:00 19/27
202207071900 BELLEVILLE (69220) L'Original Bar Jeudi 07 juillet 19:00 10/24
202207071900 CHÂTILLON SAINT JEAN (26750) Le M (Jeudi) Jeudi 07 juillet 19:00 9/32
202207071900 DAVEZIEUX (07430) La Loco Jeudi 07 juillet 19:00 9/24
202207071900 GRESY-SUR-AIX (73100) L'Envie Jeudi 07 juillet 19:00 17/24
202207071900 THONON-LES-BAINS (74200) Le  Flore Jeudi 07 juillet 19:00 6/32
202207071900 TOULON (83000) Les Aludes Jeudi 07 juillet 19:00 5/27
202207071900 GRILLY (01220) L'Echappée Belle Jeudi 07 juillet 19:00 2/16
202207071900 BESANCON (25000) Le Fontaine Argent Jeudi 07 juillet 19:00 10/24
202207071900 AUBAGNE (13400) Les Enfants Gâtés Jeudi 07 juillet 19:00 1/24
202207071900 FILLINGES (74250) L'Hôtel Campanile Jeudi 07 juillet 19:00 8/18
202207071900 RIORGES (42153) Le Bowling de Riorges (Jeudi) Jeudi 07 juillet 19:00 13/24
202207071900 BOURG-EN-BRESSE (01000) Le 1055 Jeudi 07 juillet 19:00 16/24
202207081900 CLERMONT-L'HERAULT (34800) Le Air Soccer 5 Vendredi 08 juillet 19:00 9/24
202207081900 ANDREZIEUX (42160) Le Club 42 Vendredi 08 juillet 19:00 3/18
202207081900 IZEAUX (38140) Les 3 Petits Bergers Vendredi 08 juillet 19:00 4/18
202207081930 ANNEMASSE (74100) Le Madness Beear (Vendredi) Vendredi 08 juillet 19:30 4/32
202207101700 MONTPELLIER (34000) My Beers (Montpellier) Dimanche 10 juillet 17:00 4/24
202207101745 LE THOR (84250) My Beers (Isle sur Sorgue) Dimanche 10 juillet 17:45 24/24
202207101830 ANNEMASSE (74100) Le Little Rock (Dimanche) Dimanche 10 juillet 18:30 7/24
202207101900 NICE (06000) Le Latino Son Dimanche 10 juillet 19:00 26/36
202207111830 SAINT JULIEN EN GENEVOIS (74160) Le Saint Jus (Lundi) Lundi 11 juillet 18:30 3/18
202207111900 CHAMBERY (73000) Le Brock Art Lundi 11 juillet 19:00 7/24
202207111900 LONS-LE-SAUNIER (39000) La Lanterna Lundi 11 juillet 19:00 1/16
202207111900 SILLINGY (74330) L'American Diner Lundi 11 juillet 19:00 3/32
202207111900 MONTPELLIER (34000) The Shakespeare Lundi 11 juillet 19:00 2/18
202207111900 BOURG-EN-BRESSE (01000) L'Ardoise (Lundi) Lundi 11 juillet 19:00 1/32
202207111900 VILLEURBANNE (69100) Le Bryan's Café Lundi 11 juillet 19:00 8/24
202207111900 BESANCON (25000) Le Play Arena Lundi 11 juillet 19:00 9/24
202207111930 THONON-LES-BAINS (74200) La Bodega Lundi 11 juillet 19:30 1/40
202207111930 LES ABRETS (38490) Le 927 Lundi 11 juillet 19:30 0/18
202207121830 SAINT JULIEN EN GENEVOIS (74160) Le Saint Jus (Mardi) Mardi 12 juillet 18:30 7/18
202207121830 CHALON SUR SAÔNE (71100) Au Bureau Chalon Mardi 12 juillet 18:30 16/18
202207121830 AVIGNON (84000) Le Beer District Mardi 12 juillet 18:30 1/18
202207121900 NEZIGNAN-L'ÉVEQUE (34120) L'Eden Mardi 12 juillet 19:00 0/16
202207121900 LAGNIEU (01150) La Grange (Mardi) Mardi 12 juillet 19:00 1/24
202207121900 NICE (06300) L'Akathor Mardi 12 juillet 19:00 13/36
202207121900 LYON (69002) The King Arthur Mardi 12 juillet 19:00 15/27
202207121900 RIORGES (42153) Le Bowling de Riorges (Mardi) Mardi 12 juillet 19:00 3/27
202207121900 THONON-LES-BAINS (74200) Le Café du Palais Mardi 12 juillet 19:00 1/32
202207121900 VALENCE (26000) Le Speakeasy Mardi 12 juillet 19:00 0/27
202207121900 GORREVOD (01190) Le Repère (Mardi) Mardi 12 juillet 19:00 0/24
202207121900 SCIONZIER (74950) Le BobbyBar Mardi 12 juillet 19:00 2/16
202207121900 SEYNOD (74600) Le Crazy Clock Mardi 12 juillet 19:00 0/24
202207121900 GRENOBLE (38100) Chez Mumu Mardi 12 juillet 19:00 5/24
202207121930 LES ABRETS (38490) Le Gambetta Mardi 12 juillet 19:30 0/24
202207121930 AIX-EN-PROVENCE (13100) Le Bar BQ Mardi 12 juillet 19:30 0/18
202207131830 PUGET (83600) Le Domaine du Plan Mercredi 13 juillet 18:30 15/36
202207131845 LE CANNET (06110) Le Mediterranée Mercredi 13 juillet 18:45 4/24
202207131900 LAGNIEU (01150) La Grange (Mercredi) Mercredi 13 juillet 19:00 0/32
202207131900 SAINT-PIERRE-D'ALBIGNY (73250) Le Miolans Mercredi 13 juillet 19:00 3/32
202207131900 HYERES (83400) Le People Mercredi 13 juillet 19:00 0/24
202207131900 ANNECY (74000) Le Bowl Mercredi 13 juillet 19:00 3/32
202207131900 SAINT-VALLIER (71230) Le Chant du Coq Mercredi 13 juillet 19:00 2/24
202207131900 THONON-LES-BAINS (74200) O'CodeBar Mercredi 13 juillet 19:00 2/18
202207131900 ANNEMASSE (74100) Le Little Rock Mercredi 13 juillet 19:00 8/24
202207131930 PORTE-LES-VALENCE (26800) Le Code Bar Mercredi 13 juillet 19:30 2/24
202207131930 CESSY (01170) Le Cadence Café Mercredi 13 juillet 19:30 1/27
202207141800 ARLES (13200) My Beers (Arles) Jeudi 14 juillet 18:00 4/27
202207141900 DAVEZIEUX (07430) La Loco Jeudi 14 juillet 19:00 1/24
202207141900 BESANCON (25000) Le Fontaine Argent Jeudi 14 juillet 19:00 2/24
202207141900 FILLINGES (74250) L'Hôtel Campanile Jeudi 14 juillet 19:00 3/18
202207141900 THONON-LES-BAINS (74200) Le  Flore Jeudi 14 juillet 19:00 1/32
202207141900 BELLEVILLE (69220) L'Original Bar Jeudi 14 juillet 19:00 0/24
202207141900 RIORGES (42153) Le Bowling de Riorges (Jeudi) Jeudi 14 juillet 19:00 0/24
202207141900 GRILLY (01220) L'Echappée Belle Jeudi 14 juillet 19:00 0/16
202207141900 TOULON (83000) Les Aludes Jeudi 14 juillet 19:00 0/27
202207141900 BOURG-EN-BRESSE (01000) Le 1055 Jeudi 14 juillet 19:00 1/24
202207141900 AUBAGNE (13400) Les Enfants Gâtés Jeudi 14 juillet 19:00 0/24
202207151900 ANDREZIEUX (42160) Le Club 42 Vendredi 15 juillet 19:00 3/18
202207151900 CLERMONT-L'HERAULT (34800) Le Air Soccer 5 Vendredi 15 juillet 19:00 0/24
202207151900 IZEAUX (38140) Les 3 Petits Bergers Vendredi 15 juillet 19:00 0/18
202207151930 ANNEMASSE (74100) Le Madness Beear (Vendredi) Vendredi 15 juillet 19:30 1/32
202207171700 MONTPELLIER (34000) My Beers (Montpellier) Dimanche 17 juillet 17:00 1/24
202207171745 LE THOR (84250) My Beers (Isle sur Sorgue) Dimanche 17 juillet 17:45 18/24
202207171830 ANNEMASSE (74100) Le Little Rock (Dimanche) Dimanche 17 juillet 18:30 0/24
202207171900 NICE (06000) Le Latino Son Dimanche 17 juillet 19:00 8/36
202207181830 SAINT JULIEN EN GENEVOIS (74160) Le Saint Jus (Lundi) Lundi 18 juillet 18:30 2/18
202207181900 VILLEURBANNE (69100) Le Bryan's Café Lundi 18 juillet 19:00 6/24
202207181900 BESANCON (25000) Le Play Arena Lundi 18 juillet 19:00 2/24
202207181900 LONS-LE-SAUNIER (39000) La Lanterna Lundi 18 juillet 19:00 1/16
202207181900 BOURG-EN-BRESSE (01000) L'Ardoise (Lundi) Lundi 18 juillet 19:00 0/32
202207181900 CHAMBERY (73000) Le Brock Art Lundi 18 juillet 19:00 2/24
202207181900 MONTPELLIER (34000) The Shakespeare Lundi 18 juillet 19:00 1/18
202207181900 SILLINGY (74330) L'American Diner Lundi 18 juillet 19:00 0/32
202207181930 LES ABRETS (38490) Le 927 Lundi 18 juillet 19:30 0/18
202207181930 THONON-LES-BAINS (74200) La Bodega Lundi 18 juillet 19:30 0/40
202207191830 SAINT JULIEN EN GENEVOIS (74160) Le Saint Jus (Mardi) Mardi 19 juillet 18:30 3/18
202207191830 AVIGNON (84000) Le Beer District Mardi 19 juillet 18:30 0/18
202207191830 CHALON SUR SAÔNE (71100) Au Bureau Chalon Mardi 19 juillet 18:30 8/18
202207191900 RIORGES (42153) Le Bowling de Riorges (Mardi) Mardi 19 juillet 19:00 1/27
202207191900 GRENOBLE (38100) Chez Mumu Mardi 19 juillet 19:00 0/24
202207191900 NEZIGNAN-L'ÉVEQUE (34120) L'Eden Mardi 19 juillet 19:00 0/16
202207191900 SCIONZIER (74950) Le BobbyBar Mardi 19 juillet 19:00 1/16
202207191900 THONON-LES-BAINS (74200) Le Café du Palais Mardi 19 juillet 19:00 0/32
202207191900 NICE (06300) L'Akathor Mardi 19 juillet 19:00 8/36
202207191900 LYON (69002) The King Arthur Mardi 19 juillet 19:00 12/27
202207191900 GORREVOD (01190) Le Repère (Mardi) Mardi 19 juillet 19:00 0/24
202207191900 SEYNOD (74600) Le Crazy Clock Mardi 19 juillet 19:00 0/24
202207191900 VALENCE (26000) Le Speakeasy Mardi 19 juillet 19:00 0/27
Page sur

Devenir établissement partenaire

INFINITE PLAYER vous propose bien plus qu'une prestationn, un véritable partenariat pour l'animation dans vos bars, restaurants, bowling… grâce à notre concept de poker 100% gratuit et, bien évidemment, 100% légal.

Notre ambition est d’aider nos établissements partenaires à renforcer la vie sociale et développer une communauté de leur lieu en proposant une animation moderne, tendance et régulière !


Une prestation 3 en 1, à moindres coûts !

  • Vous aider à dynamiser une ou plusieurs soirées creuses dans la semaine.

  • Vous apporter une nouvelle clientèle, la fidéliser rapidement et durablement.

  • Accroître votre notoriété et faire parler de votre établissement.


Pour cela, nous vous apportons :


Contactez nous


  • Email : contact@infiniteplayer.fr

Merci de saisir votre nom ou pseudo

Posez nous toutes vos questions

Merci, votre message a été envoyé avec succès.

Echec de l'envoi, veuillez verifier votre adresse mail.

Echec de l'envoi, veuillez verifier votre nom.

Echec de l'envoi, n'avez-vous pas oublié de taper votre message ?

Echec de l'envoi, une erreur est survenue